Regional Weather Roundup
Issued by NWS Charleston, WV

Home | Current Version | Previous Version | Graphics & Text | Print | Product List | Glossary On
Versions: 1 2 3 4 5 6 7 8 9 10 11 12 13 14 15 16 17 18 19 20 21 22 23 24 25 26 27 28 29 30 31 32 33 34 35 36 37 38 39 40 41 42 43 44 45 46 47 48 49 50
000
ASUS41 KRLX 290910
RWRRLX
West Virginia Regional Weather Roundup
National Weather Service Charleston WV
500 AM EDT SUN MAR 29 2015

Note: "fair" indicates few or no clouds below 12,000 feet with no
significant weather and/or obstructions to visibility.

WVZ003-291000-
Northern Panhandle of West Virginia

CITY           SKY/WX    TMP DP  RH WIND       PRES   REMARKS
WHEELING       CLEAR     16   9  74 S5        30.31F WCI   9
$$

WVZ009-291000-
Northwest West Virginia

CITY           SKY/WX    TMP DP  RH WIND       PRES   REMARKS
PARKERSBURG    CLEAR     15  11  83 CALM      30.38F
$$

WVZ006-291000-
Western West Virginia

CITY           SKY/WX    TMP DP  RH WIND       PRES   REMARKS
HUNTINGTON     CLEAR     21  13  71 CALM      30.37S
$$

WVZ015-291000-
West Central West Virginia

CITY           SKY/WX    TMP DP  RH WIND       PRES   REMARKS
CHARLESTON     CLEAR     20  12  71 CALM      30.36S
$$

WVZ022-031-291000-
North Central West Virginia

CITY           SKY/WX    TMP DP  RH WIND       PRES   REMARKS
CLARKSBURG     CLEAR     16  10  77 CALM      30.33S
MORGANTOWN     CLEAR     16   7  67 CALM      30.33R
$$

WVZ025-035-042-045-291000-
Southern West Virginia

CITY           SKY/WX    TMP DP  RH WIND       PRES   REMARKS
BECKLEY        CLEAR     18   6  59 W5        30.25S
LOGAN            N/A     23  10  58 CALM      30.29S
BLUEFIELD      CLEAR     19   6  57 W6        30.24R
LEWISBURG      CLEAR     21   9  57 W5        30.26R
$$

WVZ047-291000-
Northern Mountains of West Virginia

CITY           SKY/WX    TMP DP  RH WIND       PRES   REMARKS
ELKINS         CLEAR     11   6  81 CALM      30.29R
$$

WVZ052-291000-
Eastern Panhandle of West Virginia

CITY           SKY/WX    TMP DP  RH WIND       PRES   REMARKS
MARTINSBURG      N/A     23   4  44 NW3       30.31R
PETERSBURG     CLEAR     22   6  49 CALM      30.32S
$$


USA.gov is the U.S. government's official web portal to all federal, state and local government web resources and services.